Grand Prairie, TX

8:23 AM CDT on August 22, 2017 (GMT -0500)
Grand Prairie Municipal

Weather History for KGPM - February, 2014

Change the Weather History Date:

Sunday, February 2, 2014

  Actual Average (KRBD) Record (KRBD)
Temperature  
Mean Temperature 36 °F -  
Max Temperature 41 °F 55 °F 73 °F (2003)
Min Temperature 30 °F 37 °F 14 °F (2011)
Degree Days  
Heating Degree Days 30    
Moisture  
Dew Point 28 °F    
Average Humidity 80    
Maximum Humidity 87    
Minimum Humidity 61    
Precipitation  
Precipitation 0.00 in - - ()
Sea Level Pressure  
Sea Level Pressure 30.16 in    
Wind  
Wind Speed 14 mph (North)    
Max Wind Speed 20 mph    
Max Gust Speed 26 mph    
Visibility 9 miles    
Events      
Averages and records for this station are not official NWS values.
T = Trace of Precipitation, MM = Missing Value Source: NWS Daily Summary

Daily Weather History Graph

Daily Weather History Graph

Search for Another Location

Airport or City:

Trip Planner

Search our weather history database for the weather conditions in past years. The results will help you decide how hot, cold, wet, or windy it might be!

Date:

Astronomy

Feb. 02, 2014 Rise Set
Actual Time 7:22 AM CST 6:02 PM CST
Civil Twilight 6:56 AM CST 6:27 PM CST
Nautical Twilight 6:27 AM CST 6:57 PM CST
Astronomical Twilight 5:58 AM CST 7:26 PM CST
Moon 9:02 AM CST (2/2) 9:32 PM CST (2/2)
Length of Visible Light 11h 31m
Length of Day
10h 39m
Waxing Crescent, 11% of the Moon is Illuminated
Feb 2
Waxing Crescent
Feb 6
First Quarter
Feb 14
Full
Feb 22
Last Quarter
Mar 1
New

Hourly Weather History & Observations

Time (CST) Temp. Windchill Dew Point Humidity Pressure Visibility Wind Dir Wind Speed Gust Speed Precip Events Conditions
12:15 AM 41.0 °F 32.8 °F 28.4 °F 61% 30.04 in 10.0 mi North 16.1 mph - N/A   Mostly Cloudy
12:35 AM 39.2 °F 30.5 °F 28.4 °F 65% 30.04 in 10.0 mi North 16.1 mph 23.0 mph N/A   Overcast
12:55 AM 37.4 °F 27.2 °F 28.4 °F 70% 30.04 in 10.0 mi North 19.6 mph 26.5 mph N/A   Overcast
1:15 AM 37.4 °F 27.2 °F 28.4 °F 70% 30.05 in 10.0 mi North 19.6 mph 24.2 mph N/A   Overcast
1:35 AM 37.4 °F 28.5 °F 28.4 °F 70% 30.07 in 10.0 mi North 15.0 mph 19.6 mph N/A   Overcast
1:55 AM 37.4 °F 28.2 °F 28.4 °F 70% 30.06 in 10.0 mi North 16.1 mph - N/A   Overcast
2:15 AM 35.6 °F 25.9 °F 28.4 °F 75% 30.07 in 10.0 mi North 16.1 mph 21.9 mph N/A   Overcast
2:35 AM 35.6 °F 27.1 °F 28.4 °F 75% 30.07 in 10.0 mi North 12.7 mph 17.3 mph N/A   Overcast
2:55 AM 35.6 °F 25.5 °F 28.4 °F 75% 30.06 in 10.0 mi North 17.3 mph - N/A   Overcast
3:15 AM 35.6 °F 27.5 °F 28.4 °F 75% 30.06 in 10.0 mi NNE 11.5 mph 23.0 mph N/A   Overcast
3:35 AM 35.6 °F 26.6 °F 28.4 °F 75% 30.08 in 10.0 mi North 13.8 mph - N/A   Overcast
3:55 AM 35.6 °F 25.2 °F 28.4 °F 75% 30.08 in 10.0 mi North 18.4 mph 25.3 mph N/A   Overcast
4:15 AM 33.8 °F 23.5 °F 30.2 °F 87% 30.08 in 10.0 mi North 16.1 mph 25.3 mph N/A   Mostly Cloudy
4:35 AM 33.8 °F 23.9 °F 30.2 °F 87% 30.09 in 10.0 mi North 15.0 mph - N/A   Mostly Cloudy
4:55 AM 33.8 °F 23.2 °F 30.2 °F 87% 30.09 in 4.0 mi North 17.3 mph 26.5 mph N/A   Mostly Cloudy
5:15 AM 33.8 °F 26.4 °F 30.2 °F 87% 30.09 in 7.0 mi North 9.2 mph 26.5 mph N/A   Mostly Cloudy
5:35 AM 33.8 °F 22.5 °F 30.2 °F 87% 30.09 in 5.0 mi North 19.6 mph 26.5 mph N/A   Mostly Cloudy
5:55 AM 33.8 °F 24.3 °F 30.2 °F 87% 30.11 in 10.0 mi North 13.8 mph 19.6 mph N/A   Mostly Cloudy
7:50 AM 33.8 °F 26.4 °F 28.4 °F 81% 30.17 in 10.0 mi NNW 9.2 mph 19.6 mph N/A   Overcast
8:50 AM 33.8 °F 23.2 °F 28.4 °F 81% 30.16 in 10.0 mi NNW 17.3 mph 23.0 mph N/A   Overcast
9:50 AM 33.8 °F 23.9 °F 28.4 °F 81% 30.19 in 7.0 mi North 15.0 mph 21.9 mph N/A   Overcast
10:50 AM 33.8 °F 24.8 °F 30.2 °F 87% 30.21 in 4.0 mi North 12.7 mph 18.4 mph N/A   Overcast
11:50 AM 33.8 °F 23.5 °F 30.2 °F 87% 30.17 in 5.0 mi North 16.1 mph - N/A   Overcast
12:50 PM 33.8 °F 25.3 °F 30.2 °F 87% 30.18 in 5.0 mi NNW 11.5 mph 18.4 mph N/A   Overcast
2:50 PM 33.8 °F 23.9 °F 30.2 °F 87% 30.15 in 7.0 mi North 15.0 mph 21.9 mph N/A   Overcast
3:50 PM 32.0 °F 23.0 °F 28.4 °F 87% 30.18 in 7.0 mi NW 11.5 mph 20.7 mph N/A   Overcast
4:50 PM 30.2 °F 20.2 °F 26.6 °F 86% 30.21 in 7.0 mi NNW 12.7 mph 18.4 mph N/A   Overcast
8:15 PM 30.2 °F 20.8 °F 26.6 °F 86% 30.27 in 10.0 mi North 11.5 mph - N/A   Overcast
8:35 PM 30.2 °F 20.2 °F 26.6 °F 86% 30.27 in 10.0 mi North 12.7 mph 16.1 mph N/A   Overcast
8:55 PM 30.2 °F 21.3 °F 26.6 °F 86% 30.28 in 10.0 mi North 10.4 mph - N/A   Overcast
9:15 PM 30.2 °F 23.4 °F 26.6 °F 86% 30.29 in 10.0 mi North 6.9 mph - N/A   Overcast
9:35 PM 32.0 °F 24.2 °F 26.6 °F 80% 30.29 in 10.0 mi North 9.2 mph - N/A   Overcast
9:55 PM 32.0 °F 24.8 °F 26.6 °F 80% 30.29 in 10.0 mi NNW 8.1 mph - N/A   Overcast
10:15 PM 32.0 °F 25.6 °F 26.6 °F 80% 30.29 in 10.0 mi North 6.9 mph - N/A   Overcast
10:35 PM 32.0 °F 23.6 °F 26.6 °F 80% 30.29 in 10.0 mi North 10.4 mph - N/A   Overcast
10:55 PM 32.0 °F 25.6 °F 26.6 °F 80% 30.29 in 10.0 mi North 6.9 mph - N/A   Overcast
11:15 PM 32.0 °F 24.8 °F 26.6 °F 80% 30.29 in 10.0 mi North 8.1 mph - N/A   Overcast
11:35 PM 32.0 °F 25.6 °F 26.6 °F 80% 30.29 in 10.0 mi North 6.9 mph - N/A   Overcast
11:55 PM 32.0 °F 26.4 °F 26.6 °F 80% 30.30 in 10.0 mi NNW 5.8 mph - N/A   Overcast